Location: Newark
(45.9456°N, 15.4064°E)
Time: 01:53:20
(UTC+00:00)

Vanguard 3 - Pass Details

Date: 27 January 2020
Orbit: 508 x 3263 km, 33.3° (Epoch: 25 February)

Event Time Altitude Azimuth Distance (km) Brightness Sun altitude
Rises 17:48:16 0° 254° (WSW) 7,112 13.5 -19.5°
Reaches altitude 10° 17:53:06 10° 250° (WSW) 6,182 12.7 -20.4°
Maximum altitude 18:11:58 54° 182° (S) 3,405 10.2 -23.6°
Enters shadow 18:21:26 27° 121° (ESE) 3,937 10.1 -25.3°
Drops below altitude 10° 18:26:04 10° 111° (ESE) 4,755 - -26.1°
Sets 18:29:14 0° 106° (ESE) 5,441 - -26.6°
